GFSWCAN_925_rhum_138.txt.gz
RH
79 76 73 72 76 86 87 99 94 96 94 99 95 98 100 100 100 100 95 78 64 76 70 63 51 54 59 59 52 55 62 73 85 81 78 73 79 66 59 66 90 90 94 88 75 89 90 55 52 50 32 25 33 35
81 81 78 74 73 79 86 91 100 100 100 98 94 100 100 99 100 100 99 96 82 77 79 61 55 51 46 43 53 60 56 70 73 80 84 77 78 80 70 61 77 79 72 86 77 68 49 53 47 45 44 47 48 37
91 90 82 74 71 70 74 79 82 91 98 99 100 99 100 98 100 100 100 99 89 92 88 84 84 66 63 62 54 61 64 54 72 66 73 72 89 76 77 76 63 69 65 70 67 50 48 48 47 50 42 50 39 47
74 88 92 89 78 69 66 65 69 76 81 86 90 90 89 88 85 93 100 99 97 98 100 86 70 66 60 59 61 55 52 63 70 77 83 94 99 72 76 65 63 50 62 62 66 50 39 35 33 30 31 36 46 48
60 55 62 80 88 86 76 68 61 60 70 79 79 78 79 81 86 92 98 96 84 97 98 94 83 73 74 65 63 65 66 63 82 93 98 99 90 77 88 90 90 56 47 48 49 36 40 38 37 34 35 38 40 44
90 90 88 84 77 79 81 84 79 68 60 57 54 57 66 77 89 82 98 99 100 100 100 98 82 88 77 71 74 76 78 78 82 95 98 95 81 78 99 98 70 51 44 41 42 36 39 39 40 41 46 45 42 43
93 91 91 96 96 85 71 65 69 80 77 69 58 51 50 57 81 91 94 98 98 99 99 99 99 88 79 82 88 88 84 85 85 96 99 98 94 80 99 89 63 55 45 44 48 50 54 52 49 43 46 47 49 49
95 96 95 95 95 94 93 92 91 74 64 76 70 59 50 48 67 90 72 81 98 99 100 100 98 99 84 92 93 94 97 94 93 98 99 99 95 97 98 81 56 51 50 51 49 48 53 52 54 52 50 53 58 58
94 94 94 95 95 95 95 95 94 86 64 75 77 64 56 91 83 78 92 99 100 98 99 99 98 96 94 93 94 98 98 100 91 98 98 98 97 97 83 68 59 59 64 57 62 66 61 64 67 64 63 64 71 67
91 91 94 94 90 94 94 94 94 94 80 74 78 81 87 92 94 94 100 98 97 99 100 99 96 98 96 98 98 98 99 98 98 94 96 99 90 67 61 62 64 60 64 66 74 69 59 59 58 57 59 56 58 63
89 93 91 92 92 81 85 89 91 82 73 85 83 90 85 88 95 96 99 99 99 99 98 92 94 86 93 97 96 94 98 98 98 88 97 96 93 72 65 68 68 69 68 66 67 67 66 66 64 59 59 60 63 64
95 96 94 95 94 94 94 94 86 91 84 93 92 88 91 90 100 98 94 96 99 94 95 92 87 83 89 85 94 99 98 98 96 94 98 98 83 69 72 68 68 71 69 65 61 62 59 59 62 71 72 72 71 70
94 94 95 95 95 95 93 92 91 89 87 81 84 95 98 95 96 98 96 98 96 97 99 91 91 95 97 98 100 99 98 95 94 98 94 89 79 76 86 83 73 64 61 60 61 58 57 58 63 70 72 64 63 63
92 92 92 93 94 93 94 94 91 86 82 95 91 99 96 94 96 94 92 91 88 96 94 86 93 98 98 99 98 99 94 98 97 95 94 83 79 96 96 95 96 96 89 78 69 65 64 68 70 67 64 57 65 64
91 94 94 94 94 94 94 94 90 87 87 98 93 95 99 89 95 95 96 97 94 96 94 99 99 98 98 98 94 92 97 95 92 90 85 97 100 100 100 98 97 91 81 76 76 73 69 64 65 65 62 63 59 59
89 90 91 88 86 92 92 91 85 80 94 99 97 96 96 98 99 99 95 88 92 92 94 99 98 98 86 95 99 94 97 95 92 98 99 99 98 99 98 95 87 81 84 76 77 73 67 65 66 67 66 61 58 59
90 90 87 88 77 78 90 90 90 98 98 99 96 96 96 97 93 86 90 86 88 98 95 97 98 93 94 98 94 95 96 73 98 98 97 89 85 91 93 92 88 84 81 77 76 72 71 67 68 72 68 61 64 66
89 79 82 75 79 86 83 81 99 98 97 95 99 98 97 87 71 66 73 84 94 96 97 80 86 78 90 93 76 77 88 93 95 94 84 84 79 73 84 92 89 83 80 80 82 83 77 77 85 80 76 75 76 76
88 84 85 80 82 87 99 99 100 98 91 96 96 94 74 71 66 64 62 58 71 80 99 99 90 90 75 67 84 87 79 73 63 55 82 75 69 81 81 86 87 82 80 75 72 63 59 68 76 78 80 83 88 83
93 94 85 77 82 100 99 99 99 99 100 85 98 98 92 71 66 72 67 67 79 98 99 99 74 59 55 50 49 50 51 52 61 67 66 63 62 67 76 72 63 60 73 74 71 70 80 85 82 82 81 84 93 90
98 100 99 93 98 100 99 97 98 98 97 96 95 92 90 97 93 80 78 72 93 95 82 70 64 56 52 49 44 45 49 51 62 66 63 60 52 58 64 61 65 76 82 75 79 80 78 84 77 77 84 87 87 85
98 88 90 81 99 99 99 98 96 96 98 98 100 98 98 98 93 91 91 94 96 76 73 63 57 54 58 58 55 51 52 54 54 56 57 60 69 67 72 73 85 84 82 79 78 82 80 79 79 81 88 90 90 93
90 80 96 98 98 99 95 99 97 98 100 98 100 99 99 98 94 93 91 84 63 53 54 56 56 55 60 54 55 56 57 61 65 62 61 62 65 68 74 74 75 80 81 78 81 86 89 83 88 90 90 92 95 95
92 99 98 97 96 96 97 97 98 99 96 100 100 100 90 99 95 100 95 72 55 52 56 58 57 60 60 69 73 68 62 60 65 65 64 67 72 69 65 70 70 76 76 73 77 80 85 89 90 91 91 95 95 96
98 98 99 96 97 96 95 99 99 99 99 100 100 97 91 98 96 100 95 61 59 60 60 60 65 68 74 70 61 58 54 62 72 75 65 65 72 73 74 76 76 75 79 86 92 92 92 86 85 90 92 94 95 92
96 92 96 91 98 95 93 99 99 97 94 98 96 94 100 95 99 91 70 51 55 57 58 62 66 69 70 68 69 64 59 55 58 81 68 66 71 77 79 82 83 75 67 70 82 88 86 80 85 90 92 88 85 81
96 96 96 94 92 92 98 91 83 92 95 93 94 100 93 96 93 70 44 46 57 55 50 56 63 70 69 62 57 59 57 59 63 63 56 58 59 62 72 79 82 69 62 59 58 69 78 79 85 87 89 85 86 84
93 94 93 95 99 94 88 96 94 92 83 80 85 93 92 90 70 45 57 44 36 36 41 44 46 56 62 64 62 62 62 59 62 69 72 72 68 69 71 69 67 59 66 67 64 63 71 80 86 84 87 90 87 85
100 98 93 100 97 96 95 88 82 82 73 83 68 59 62 70 46 47 42 41 42 52 75 67 51 52 60 60 61 64 70 75 94 91 86 73 67 64 48 48 58 62 61 70 74 86 84 88 82 77 80 87 93 98
98 85 91 95 96 95 71 85 85 78 70 61 54 52 52 48 42 38 44 50 73 71 62 57 57 62 70 68 67 62 63 68 77 73 72 69 65 51 50 50 50 50 52 58 60 56 61 74 74 81 86 91 94 99
93 89 96 92 82 65 61 90 96 96 99 95 97 73 60 56 50 47 52 56 63 60 65 70 68 63 72 75 76 76 73 58 58 60 64 65 63 60 57 53 53 55 57 60 62 66 66 72 79 90 93 93 97 100
99 94 92 95 78 90 94 99 97 98 100 100 76 99 99 95 92 59 46 47 66 75 72 67 74 73 62 63 63 65 63 62 62 61 59 62 65 62 59 56 57 61 66 70 72 74 76 84 91 94 95 98 100 97
98 98 98 95 92 90 93 95 96 94 98 100 97 90 87 88 85 78 39 37 40 54 59 58 57 59 58 58 61 61 63 64 63 64 69 75 74 71 69 66 66 68 73 76 78 82 88 90 94 95 99 100 97 97

GFSWCAN_925_rhum_144.txt.gz
RH
100 100 98 87 82 78 78 81 82 86 91 93 90 92 91 97 100 96 97 93 66 75 71 57 50 52 57 56 66 54 61 67 69 72 66 56 55 44 46 48 71 68 74 78 70 77 77 45 50 44 25 24 22 29
100 99 96 89 84 81 81 84 87 93 93 100 98 94 92 95 100 100 99 99 87 88 78 71 62 58 47 51 58 58 60 64 66 68 67 61 61 59 49 44 65 59 50 54 54 55 40 43 37 34 37 37 35 33
97 96 90 90 86 82 80 78 81 86 94 96 98 100 98 96 99 100 100 98 98 94 84 84 75 69 71 71 54 75 62 58 75 65 78 86 99 63 62 57 43 53 46 56 56 40 41 33 30 34 36 36 34 35
94 98 94 88 83 81 81 76 72 75 88 92 92 93 92 92 96 100 99 99 97 95 99 81 73 73 68 66 68 66 62 62 66 72 92 99 100 78 89 61 58 46 54 52 51 43 39 36 33 32 33 36 38 37
81 75 82 89 94 93 90 88 87 77 71 69 70 72 74 76 78 84 93 98 95 90 90 82 70 70 77 70 69 68 69 64 70 90 97 95 96 93 79 76 84 53 52 55 53 37 37 39 36 37 42 44 42 43
82 82 80 79 76 74 75 77 82 87 87 82 74 64 56 53 56 70 86 97 98 97 98 99 76 84 81 77 78 79 80 72 81 90 100 98 85 84 100 99 55 50 49 45 49 41 43 43 42 40 44 44 43 47
92 84 76 80 82 76 67 61 59 59 59 65 73 79 71 62 54 80 80 99 100 99 95 94 86 82 81 82 86 84 84 78 81 93 98 100 97 91 98 91 57 48 44 44 42 44 51 47 48 42 44 46 50 46
93 94 95 93 92 87 84 82 76 64 57 49 44 47 58 66 65 68 50 50 74 93 95 89 88 91 85 86 83 85 86 86 88 90 99 100 97 98 98 71 57 52 50 48 45 43 48 48 51 50 49 46 49 50
78 78 85 83 86 86 84 83 78 71 68 63 54 61 74 83 86 75 89 93 90 94 96 99 86 85 84 85 85 88 93 98 81 99 99 98 100 97 74 67 61 59 62 62 59 59 59 58 54 49 50 51 55 54
82 83 74 75 73 76 79 84 81 79 73 59 70 74 81 89 92 86 97 95 99 94 99 94 80 86 83 89 91 88 99 91 96 76 88 100 74 56 56 63 66 66 62 60 62 63 61 57 53 51 53 54 58 60
71 75 75 72 76 80 77 74 84 75 75 81 85 83 82 78 80 93 89 96 90 98 96 82 83 80 83 89 84 83 92 90 92 73 86 83 80 69 74 83 77 72 71 74 70 70 67 64 62 59 54 54 56 56
88 85 80 80 78 76 80 85 93 73 77 86 88 90 86 82 90 84 91 87 91 82 84 91 84 77 76 82 93 94 91 91 91 76 95 85 69 90 87 92 90 74 63 64 69 72 66 62 59 63 61 60 58 61
90 88 86 84 83 86 88 89 93 85 77 86 93 92 88 84 95 94 95 91 93 84 92 94 94 97 98 99 100 98 100 89 79 95 79 67 78 97 100 100 90 76 68 62 58 61 62 58 60 61 65 65 66 63
94 88 88 94 94 87 83 85 88 76 76 82 87 87 82 91 90 82 80 83 82 93 94 95 95 91 91 99 87 96 74 90 91 95 74 60 83 99 99 89 90 73 67 69 67 59 60 65 68 71 71 67 70 66
94 94 88 86 84 86 79 81 86 79 80 86 90 90 94 74 84 84 91 92 88 92 93 90 88 89 88 95 90 84 92 91 83 78 84 92 98 98 86 81 80 73 65 68 68 68 68 68 70 71 68 68 72 74
94 94 91 85 83 82 82 88 96 86 95 98 98 99 87 96 94 98 98 93 84 85 88 85 80 95 85 94 90 80 81 72 77 88 70 80 95 96 95 80 70 65 57 58 68 77 80 76 74 72 69 71 71 67
92 86 85 78 79 79 88 93 97 100 97 97 98 90 81 83 79 78 79 76 78 86 82 81 92 82 74 92 96 84 87 68 76 68 56 46 51 51 62 70 65 66 53 53 63 73 82 78 79 82 74 63 63 64
94 87 86 90 89 89 89 99 99 97 98 97 96 91 81 69 64 63 61 61 67 66 78 83 80 87 77 83 63 50 51 51 47 43 45 48 45 49 63 69 60 55 54 57 65 70 78 82 81 70 63 69 73 76
91 90 88 85 91 90 99 99 98 97 92 95 90 85 79 73 73 56 55 53 62 68 83 92 88 92 69 53 57 60 60 58 50 44 43 39 42 42 42 46 54 59 69 69 66 64 62 57 61 61 61 65 68 68
89 84 83 81 90 100 99 98 99 96 100 80 92 91 71 65 56 56 60 64 76 87 94 95 72 56 52 47 47 47 45 43 44 47 47 44 40 45 50 56 58 57 57 56 60 69 71 70 71 69 72 73 75 72
83 79 81 88 86 100 99 98 97 97 95 89 89 79 80 89 85 79 77 79 88 96 86 64 55 46 43 43 41 41 42 41 45 45 48 51 44 46 48 50 54 57 61 58 56 57 63 66 69 70 73 75 74 74
87 83 81 79 99 99 99 99 98 96 96 95 96 92 92 91 91 82 89 89 95 68 61 50 47 48 51 50 47 47 48 49 50 51 52 52 59 60 59 56 60 68 69 68 68 70 68 69 71 72 73 76 77 80
91 94 96 88 100 100 90 99 96 96 96 95 98 100 99 100 95 89 88 85 64 48 48 50 48 46 51 48 48 50 50 52 54 51 50 50 50 53 58 61 61 70 75 70 69 71 74 75 76 76 78 83 88 88
97 99 98 97 97 95 96 96 95 94 94 97 100 100 99 96 92 99 92 61 52 48 52 55 54 57 54 61 64 58 53 52 55 55 55 57 64 61 60 62 64 67 71 70 72 75 76 78 77 78 81 86 89 90
99 97 98 96 96 96 98 97 96 90 96 93 100 99 88 93 91 100 93 54 48 54 56 56 58 59 64 60 52 50 48 53 57 59 56 62 64 64 67 68 69 69 70 75 78 78 80 80 81 82 84 88 89 88
96 90 96 92 95 91 92 99 100 98 97 100 98 89 98 93 100 88 63 46 58 63 61 67 67 63 61 59 58 54 50 50 60 69 61 62 67 72 76 75 74 67 61 72 78 79 80 81 84 87 87 89 87 85
97 96 96 88 88 88 96 86 82 93 98 98 90 100 96 96 94 75 51 49 50 54 41 45 54 60 58 52 47 51 51 52 57 51 46 52 59 65 68 75 74 60 56 60 64 75 78 79 83 85 87 84 84 82
94 92 98 98 99 95 90 99 96 95 85 82 80 95 88 84 62 40 50 33 34 37 40 43 46 52 51 49 48 50 52 54 61 67 72 73 68 76 75 71 70 67 70 71 74 80 80 80 80 80 82 84 80 78
97 100 89 100 99 100 97 90 84 78 68 76 70 57 62 51 42 44 38 37 42 50 65 58 53 52 57 59 64 64 66 65 74 87 88 77 70 62 60 67 64 64 67 72 68 83 87 90 87 86 87 86 84 87
95 93 96 97 95 91 87 86 90 75 74 57 50 49 50 51 45 42 48 50 56 61 58 59 61 63 71 72 71 67 68 74 78 78 82 80 72 62 63 62 62 60 58 60 64 66 69 80 83 89 94 95 93 99
92 98 99 95 78 63 60 69 83 88 90 82 73 70 62 56 48 46 49 50 53 56 61 67 66 64 71 76 78 80 79 66 66 70 73 75 75 76 75 73 70 70 70 71 70 72 80 84 87 90 90 90 86 89
99 96 85 100 74 82 90 88 87 87 82 88 69 81 87 91 88 57 44 49 59 73 67 68 84 78 73 75 74 77 77 76 76 76 74 73 74 72 69 71 75 75 76 77 78 80 80 84 89 89 90 86 84 84
99 99 99 99 94 89 97 86 95 95 100 99 89 79 89 85 87 78 63 64 64 65 61 72 84 89 85 88 93 91 89 87 83 89 92 92 94 91 90 90 89 88 86 87 87 87 90 92 93 91 90 90 90 91

GFSWCAN_925_rhum_150.txt.gz
RH
94 78 75 79 83 93 90 92 87 80 76 74 85 93 96 93 91 98 95 90 81 80 74 56 49 58 61 63 71 60 67 70 74 79 78 71 66 48 45 48 71 81 89 89 77 81 89 45 46 47 43 39 39 42
95 100 93 93 92 93 95 93 86 79 79 99 98 98 98 100 98 98 97 90 92 90 86 76 71 64 60 57 62 60 67 60 65 76 75 72 69 59 52 58 42 60 54 64 66 68 46 43 39 37 38 44 44 48
94 99 100 100 100 100 99 90 84 85 84 93 99 97 98 99 98 97 99 97 95 97 89 88 75 65 71 68 59 76 66 56 65 69 89 93 98 74 80 66 53 48 40 54 51 39 38 40 37 35 39 45 47 47
100 100 100 100 99 97 94 90 85 81 85 92 96 95 91 90 90 98 100 98 95 95 97 71 61 64 66 66 72 63 63 61 68 74 90 96 99 74 84 81 76 56 53 53 55 47 44 40 38 41 45 44 46 44
99 95 94 94 92 88 83 80 76 72 71 73 76 78 78 81 85 92 95 92 97 91 97 85 61 51 54 68 69 73 72 71 82 93 98 98 98 82 87 89 81 58 60 63 63 48 49 49 46 43 48 47 47 52
97 99 98 94 92 92 92 90 88 88 86 82 77 72 65 59 56 62 94 99 99 95 96 95 61 72 76 75 76 75 74 79 86 92 92 88 82 78 92 89 56 52 49 49 57 48 50 46 45 44 49 52 53 54
95 98 95 92 92 80 80 74 71 72 73 73 74 78 77 70 57 87 93 100 98 96 97 99 94 85 78 80 84 85 77 84 86 95 99 92 97 88 98 88 57 52 50 49 47 51 56 51 59 54 54 48 48 49
87 90 87 87 87 88 79 74 74 74 70 68 65 57 54 60 64 68 64 53 56 82 93 100 94 79 80 90 95 88 96 95 95 96 97 99 95 97 98 71 56 52 54 54 51 55 57 55 52 48 44 47 54 55
88 90 88 89 86 89 85 82 76 74 70 69 61 55 66 81 81 85 81 68 71 96 96 88 93 89 84 89 91 94 95 99 89 99 99 99 99 97 84 73 61 57 59 58 58 60 54 59 59 56 55 54 53 54
79 81 85 83 77 81 90 88 87 84 79 68 69 93 84 87 83 91 78 92 95 92 97 85 75 90 82 87 91 91 98 96 98 86 90 99 80 60 54 63 59 63 61 64 75 75 71 77 72 69 68 64 61 60
77 77 80 81 82 78 82 87 86 73 72 91 82 81 89 76 84 90 94 89 90 98 88 82 70 77 76 88 86 86 95 89 89 88 94 91 93 66 72 74 69 66 63 64 65 68 68 74 78 78 75 67 59 56
82 81 86 85 74 76 81 77 72 76 89 88 83 78 79 86 94 94 96 88 91 85 87 86 95 78 84 82 89 90 92 92 88 82 96 96 65 84 84 86 80 79 73 72 66 69 62 58 57 58 60 60 61 58
74 75 70 71 71 77 80 80 84 77 73 81 84 96 93 94 86 96 95 92 93 91 77 95 87 97 97 96 96 96 97 88 85 92 84 78 83 86 90 92 76 66 65 62 55 52 53 54 52 56 64 61 61 63
75 68 70 65 66 73 72 72 78 76 83 93 89 99 93 95 93 86 84 88 92 92 76 89 97 98 96 99 98 98 93 98 97 96 93 92 88 86 85 87 85 81 68 54 54 58 51 54 53 47 49 56 61 65
71 72 70 73 71 67 64 74 76 69 81 92 94 97 94 81 89 94 98 93 90 85 85 89 94 87 95 97 93 89 94 96 85 82 94 99 97 98 100 99 91 75 63 57 50 49 50 51 53 54 50 51 59 62
93 87 90 80 72 69 75 85 81 71 98 96 96 96 91 94 93 96 96 96 82 82 84 91 91 94 94 91 88 90 88 84 83 93 93 86 94 97 98 87 65 70 66 47 42 48 53 54 53 51 51 52 56 62
94 83 79 74 72 77 88 87 76 97 94 92 96 91 90 93 93 90 86 84 65 91 96 95 99 90 90 93 95 83 85 84 72 59 56 42 43 39 37 40 40 38 40 42 43 45 49 51 52 55 61 56 58 62
94 92 79 72 80 85 100 91 95 97 96 95 96 94 84 74 75 71 66 71 85 93 90 90 90 96 96 87 69 48 47 48 46 46 46 41 38 36 35 40 38 41 43 47 50 55 57 60 64 64 62 65 67 69
91 89 85 70 88 96 99 99 100 98 90 94 92 89 83 77 72 59 58 50 65 72 91 93 89 98 78 57 58 60 60 58 53 46 43 39 37 38 38 41 45 50 54 57 58 54 51 51 53 53 57 61 64 63
88 90 86 86 100 100 99 99 99 98 96 89 95 93 90 88 71 70 64 64 81 91 97 96 82 56 51 46 46 47 46 44 45 48 46 41 37 39 45 48 49 48 49 48 50 52 52 54 54 58 59 61 68 71
98 95 92 97 100 100 98 98 98 96 94 96 94 92 93 92 91 85 82 88 89 96 93 78 60 50 43 42 40 40 41 41 44 44 45 49 41 42 45 46 48 51 52 51 52 51 51 55 54 56 58 63 64 66
99 100 100 100 100 99 99 100 98 96 96 95 97 96 97 97 93 91 91 89 96 79 68 58 55 53 54 52 46 43 44 44 45 46 46 46 53 53 53 52 57 66 64 63 62 65 63 62 64 65 67 70 70 72
99 98 99 99 98 98 98 99 97 98 96 96 97 100 98 97 95 95 94 92 85 57 56 57 53 50 54 48 47 47 47 50 52 50 48 48 48 49 52 55 55 64 69 63 62 66 67 67 67 70 72 75 79 81
79 94 98 98 97 97 97 97 94 96 96 100 100 97 95 96 97 99 100 89 56 52 53 55 52 57 54 61 64 58 53 50 53 54 53 55 61 56 52 54 55 57 61 61 62 65 68 70 70 73 76 81 82 86
94 99 98 97 97 96 94 94 88 88 96 98 99 99 93 96 100 100 96 77 56 57 56 53 55 56 63 60 52 49 46 48 54 54 48 51 54 54 55 54 54 55 56 61 66 67 69 71 75 79 82 84 86 85
95 87 98 90 96 94 95 100 100 97 95 98 96 94 96 99 100 92 87 48 59 66 62 65 64 64 63 58 58 53 48 44 46 57 52 52 51 55 64 65 64 58 55 55 65 70 73 74 79 80 82 82 82 78
100 92 98 93 92 91 98 87 82 94 98 98 95 100 100 100 97 80 56 44 52 48 39 46 56 62 62 52 42 43 42 43 48 51 49 52 53 53 55 64 65 57 57 57 56 58 72 76 79 81 82 80 80 81
92 91 98 93 96 95 91 96 96 96 91 88 93 97 94 88 56 42 48 32 31 33 39 46 50 54 58 56 56 57 59 59 61 63 68 71 71 71 70 70 68 65 67 69 70 72 73 76 78 80 83 83 82 82
100 95 88 100 99 100 96 91 88 82 74 87 86 62 58 41 41 46 38 39 41 46 58 57 53 53 55 59 62 64 68 73 84 90 90 88 81 73 68 66 65 65 67 71 74 84 84 86 87 88 89 90 91 88
96 86 90 98 100 98 78 87 86 78 76 60 56 52 52 53 46 44 47 51 56 61 57 59 61 65 72 75 76 74 73 75 80 90 95 92 84 76 74 73 72 70 70 71 74 80 84 84 81 84 85 85 85 89
94 93 96 91 79 64 63 64 67 81 85 89 82 72 65 59 52 50 52 54 58 62 67 75 76 74 80 89 96 92 90 80 82 86 94 98 97 97 97 98 97 96 89 84 84 84 85 85 86 88 90 92 89 93
100 99 98 99 83 87 88 86 89 90 86 81 74 80 72 78 81 82 65 58 58 78 75 82 87 88 86 84 90 96 97 97 98 97 97 97 97 97 97 97 97 98 97 98 95 93 92 93 93 91 92 92 90 88
100 99 99 96 93 88 92 88 89 95 98 97 94 91 91 89 88 86 72 74 78 82 82 87 92 90 86 86 82 80 94 94 95 98 98 97 97 97 98 98 98 97 97 97 97 98 99 99 98 96 95 94 93 91

GFSWCAN_925_rhum_153.txt.gz
RH
74 92 100 92 76 73 75 81 88 88 86 79 75 81 98 100 100 99 97 84 86 92 88 61 52 60 70 74 82 66 72 75 80 82 86 81 82 64 50 64 83 86 95 95 86 93 90 47 46 47 42 42 40 47
76 78 83 100 93 84 82 85 95 92 90 79 79 90 96 96 98 99 94 92 85 91 89 79 72 65 62 59 71 67 74 72 77 84 87 82 76 72 64 70 52 73 66 82 75 72 48 48 39 38 41 46 48 50
96 88 88 95 97 100 96 99 100 98 88 83 94 98 89 94 94 98 98 96 96 99 91 91 85 66 67 73 61 76 81 65 67 76 90 91 92 85 85 80 56 49 44 54 51 45 45 42 40 40 44 50 50 50
98 99 100 100 100 100 100 100 100 95 93 94 98 100 96 93 93 99 100 98 94 94 99 83 67 65 61 58 64 69 67 64 72 77 84 94 98 83 91 80 82 64 60 59 64 54 48 47 48 52 50 51 54 55
99 100 99 98 97 94 92 89 90 89 87 83 86 85 83 83 87 93 95 99 99 97 97 93 74 65 58 63 64 69 77 80 83 93 98 96 97 89 90 94 96 65 60 65 64 47 56 56 53 50 54 57 58 59
94 99 100 100 97 94 91 88 87 85 82 81 75 69 65 60 57 62 95 98 100 100 99 99 72 76 75 73 74 76 81 84 90 97 98 95 86 85 99 99 67 55 52 49 55 49 55 56 52 55 57 59 54 54
81 93 95 97 99 98 93 87 83 82 77 76 77 78 77 71 59 84 91 97 84 92 96 88 95 86 79 80 86 88 83 90 93 96 98 93 96 86 100 88 62 56 51 48 45 51 56 54 60 57 50 48 51 52
75 82 92 94 99 98 90 72 71 68 65 64 61 55 51 52 59 66 60 61 64 80 92 94 96 86 82 89 96 91 96 96 94 96 97 99 93 96 97 74 56 50 47 51 55 54 58 59 56 52 48 48 53 55
85 71 80 80 83 91 88 84 78 73 69 69 60 53 60 61 82 83 84 78 70 90 96 94 93 88 86 85 93 96 96 99 92 90 99 99 91 96 81 83 71 61 60 59 58 62 60 62 70 69 67 67 67 66
85 84 74 81 78 80 91 93 84 76 72 65 59 89 91 88 84 90 88 96 95 93 97 96 84 94 86 80 91 95 99 92 99 95 97 99 87 74 69 68 64 63 61 64 73 77 73 79 81 81 81 79 80 78
78 79 79 84 82 80 89 95 92 77 72 87 92 90 92 87 81 96 86 89 90 90 81 74 91 89 74 92 90 90 95 93 91 82 96 92 93 79 68 74 73 73 71 69 68 70 73 76 80 83 80 76 70 64
72 75 81 78 78 76 72 83 70 65 88 88 82 82 82 90 94 92 100 94 98 88 94 90 94 87 87 90 92 92 90 96 82 80 99 98 80 83 90 91 88 76 65 62 58 69 63 65 64 67 67 66 63 62
73 78 83 84 71 86 80 89 66 69 68 68 81 90 89 90 88 98 100 96 97 95 84 91 82 95 90 92 99 96 98 94 88 96 82 85 95 95 97 89 79 63 57 54 52 46 47 56 54 58 61 53 57 63
81 78 73 74 74 92 76 87 81 76 75 93 93 100 89 97 96 91 90 89 88 94 81 92 100 100 99 100 98 99 90 98 100 98 93 97 98 99 100 100 98 90 80 80 72 60 60 62 60 54 52 53 57 58
72 71 72 68 67 70 73 77 79 73 77 90 95 99 98 84 94 98 100 95 94 92 90 93 94 93 98 100 97 90 87 98 90 89 96 96 85 86 89 87 70 64 62 60 61 61 58 57 55 53 53 54 55 54
73 76 83 71 72 74 67 87 92 72 97 97 99 98 93 95 95 100 99 97 91 90 88 94 96 99 96 98 95 96 97 95 82 94 93 91 91 85 72 67 68 65 64 59 63 68 67 55 51 51 52 53 51 50
82 89 73 65 68 77 84 78 71 94 91 98 97 95 96 96 90 95 91 90 82 86 99 98 98 94 90 96 100 90 88 71 80 84 86 71 54 48 47 48 46 46 44 43 44 46 48 45 49 57 60 53 51 52
91 75 63 65 81 96 95 77 87 96 92 94 100 95 93 84 86 76 86 86 89 96 95 94 90 100 95 96 90 73 70 73 67 50 45 47 46 43 40 44 43 45 47 47 49 50 55 61 66 65 62 63 65 67
86 83 71 83 90 85 98 99 97 100 93 96 97 97 90 83 83 68 71 67 78 83 89 93 88 98 80 65 62 62 60 61 56 48 46 42 42 42 43 46 49 54 58 57 55 51 48 49 52 53 55 57 62 61
80 74 75 86 87 97 99 99 99 100 100 92 98 99 92 89 80 82 79 83 81 92 97 97 85 62 57 48 47 49 50 50 57 56 51 45 40 41 48 51 50 48 52 51 53 55 56 58 56 57 60 63 66 67
96 91 82 96 100 100 97 98 94 88 97 97 97 94 93 96 90 91 92 90 96 94 98 86 63 51 48 47 44 43 44 44 48 48 50 52 44 45 48 48 51 54 57 54 55 54 54 56 55 56 60 63 64 65
98 92 94 100 99 99 99 99 95 97 97 97 99 97 100 98 97 95 93 95 98 84 75 58 56 56 58 58 53 51 52 52 52 52 51 50 55 54 54 52 56 66 63 62 61 64 62 60 61 64 68 70 72 74
99 100 99 99 98 98 97 99 97 97 96 96 98 100 99 99 95 93 93 93 88 62 56 59 58 56 63 58 57 58 56 57 58 54 50 50 50 51 55 56 56 66 71 62 60 64 66 65 66 68 72 76 80 84
93 98 98 97 97 96 97 97 97 97 96 96 97 100 95 95 96 99 100 94 60 52 56 62 61 69 64 68 72 63 56 54 57 57 57 58 64 59 56 57 56 56 60 60 61 63 65 68 69 71 74 79 83 87
80 97 92 96 96 96 97 98 97 96 95 96 98 96 91 97 100 100 100 87 62 57 61 61 67 66 70 63 55 51 48 54 60 62 53 52 54 55 56 55 54 55 56 57 64 64 67 67 70 75 79 83 86 86
86 86 96 94 95 90 93 99 95 95 96 100 99 95 100 100 100 93 90 70 59 70 68 73 68 64 62 59 60 54 46 45 54 66 56 53 55 59 67 66 67 62 56 55 59 66 70 69 72 77 82 83 83 80
100 97 97 92 93 94 97 90 86 96 100 99 94 100 100 100 100 80 76 81 75 50 35 42 56 61 61 52 47 46 48 53 54 53 50 53 55 57 61 68 70 62 63 64 62 64 70 70 72 77 84 83 84 84
92 94 96 95 99 97 94 100 99 100 92 88 92 100 96 86 62 53 60 34 32 31 33 36 42 50 56 56 56 58 61 63 64 67 73 76 77 77 77 77 77 77 79 82 82 81 81 82 84 84 85 87 89 86
96 100 92 100 100 100 96 90 88 86 73 86 87 66 63 53 43 48 40 40 42 49 64 60 56 56 58 59 63 67 70 78 90 93 91 88 80 73 71 76 80 92 96 97 92 87 84 86 88 90 92 92 90 90
96 92 94 98 98 100 89 84 87 87 84 65 67 56 54 53 47 45 49 54 60 63 59 61 64 70 78 80 82 83 80 83 84 94 95 93 91 97 98 96 96 97 97 98 97 95 88 83 82 83 85 85 87 91
96 98 97 97 91 75 64 81 86 84 90 86 83 68 64 60 53 51 52 54 59 64 71 81 81 81 87 90 96 96 89 79 82 90 95 97 97 97 97 97 97 97 97 98 98 98 97 95 91 92 93 94 90 95
100 99 100 100 92 85 94 89 93 94 92 93 75 91 84 91 93 86 71 62 63 85 79 84 92 92 87 92 94 96 95 96 99 99 98 98 97 98 98 98 98 97 97 98 98 97 97 98 99 99 99 96 94 93
98 98 99 98 96 88 92 86 90 98 99 100 95 96 94 90 87 88 76 79 81 83 84 93 92 90 82 79 75 80 93 92 94 98 97 97 96 96 97 98 97 97 97 98 98 97 96 97 97 97 98 99 96 96

GFSWCAN_925_rhum_156.txt.gz
RH
70 68 75 89 100 94 77 74 76 79 84 85 84 78 82 97 98 97 95 89 88 95 88 71 57 65 73 79 83 69 71 78 85 87 89 86 87 73 55 59 83 89 94 96 79 92 92 51 46 54 47 44 52 50
99 86 73 66 71 96 97 81 78 80 85 93 89 80 91 97 94 93 90 92 86 92 88 81 71 63 57 58 80 76 73 78 79 84 89 89 87 80 71 74 69 70 68 82 78 72 52 49 42 41 48 54 51 52
98 97 87 83 80 82 100 100 89 92 100 100 90 88 94 94 95 93 99 94 94 99 93 90 85 66 69 70 67 84 86 65 76 77 88 89 92 86 86 86 59 54 56 62 64 50 51 43 42 45 46 50 51 53
92 96 100 98 93 96 99 100 100 100 100 99 99 94 94 95 90 94 99 96 96 87 100 83 71 69 66 69 73 64 65 67 71 82 88 91 94 76 92 80 83 67 60 62 62 57 50 49 48 52 55 53 53 56
95 99 98 99 100 100 100 100 98 98 96 92 94 94 90 87 87 91 97 97 98 94 98 93 79 68 68 68 67 71 78 82 88 91 98 91 90 87 87 91 78 77 63 67 61 51 64 61 55 53 54 56 58 60
77 95 100 100 99 95 90 86 85 80 76 74 73 69 66 64 63 64 91 98 98 98 100 100 76 76 74 74 77 80 85 91 93 96 95 93 85 85 100 90 72 63 56 51 55 52 62 59 57 54 57 56 54 55
76 75 84 98 100 100 100 96 93 90 87 83 76 73 71 67 59 76 87 92 84 90 92 92 92 82 81 83 88 90 88 92 95 90 96 88 94 94 100 95 67 60 53 52 54 62 65 58 58 56 53 50 50 52
84 81 83 81 96 97 94 80 69 65 65 63 59 54 53 57 63 65 63 72 81 89 92 87 86 83 85 86 91 94 94 95 92 95 97 99 97 99 99 88 63 54 50 51 48 55 59 57 58 59 58 60 65 64
91 86 93 83 86 93 94 84 79 74 70 70 63 56 54 53 68 80 89 81 71 85 96 95 89 89 84 86 79 91 97 99 89 99 98 97 95 97 86 82 79 76 66 62 64 63 59 62 72 73 71 73 75 77
83 85 86 92 85 88 90 96 90 78 80 70 61 77 90 90 95 95 92 95 93 91 94 99 90 90 85 88 91 96 94 85 92 89 96 99 80 64 75 78 79 72 62 65 68 74 75 77 79 78 76 80 84 86
80 81 82 74 82 76 81 92 94 87 74 80 90 89 88 93 85 91 88 94 96 83 72 72 90 91 79 94 89 90 94 92 87 78 90 85 93 83 91 92 89 84 75 69 66 66 69 76 81 80 78 72 69 67
78 78 80 74 80 77 90 95 93 74 80 87 83 89 86 86 92 89 94 90 96 88 92 96 92 89 88 92 95 94 92 96 88 81 98 98 84 95 96 83 73 74 80 79 67 61 53 51 51 63 68 66 60 60
80 74 76 80 79 83 78 81 77 62 85 75 72 81 84 93 100 100 97 93 99 95 95 95 91 87 83 86 99 86 98 95 90 99 87 86 92 96 99 99 90 66 55 43 49 42 61 75 53 54 61 57 57 56
80 78 77 79 84 92 87 86 79 76 66 88 88 91 80 99 96 92 88 88 84 91 94 88 97 94 95 84 87 98 90 98 98 96 95 98 94 96 98 97 76 59 54 56 51 52 72 68 58 55 56 56 57 62
90 76 81 98 99 91 92 91 87 75 75 89 91 96 100 83 95 95 96 97 96 91 91 94 94 93 99 99 99 95 93 100 96 88 88 94 87 90 91 79 77 73 64 61 57 58 59 58 60 60 60 60 57 57
97 80 88 76 78 68 78 96 97 78 97 96 98 98 92 97 96 99 99 95 95 94 90 91 97 96 84 100 98 100 98 96 78 92 91 89 89 88 87 83 63 46 55 57 54 56 57 55 56 53 50 48 49 56
100 99 81 73 70 83 98 99 96 94 85 100 95 93 96 96 91 96 90 88 84 89 97 98 100 92 91 100 100 92 92 51 64 75 84 83 75 68 71 54 47 48 50 49 49 50 52 49 51 56 60 54 54 54
100 82 69 69 88 100 99 73 86 95 90 88 100 95 97 85 87 84 91 93 94 95 94 92 90 100 98 100 88 68 74 68 71 68 62 61 55 44 41 48 47 49 50 51 52 54 58 61 67 62 59 61 64 66
92 69 64 84 86 86 99 99 91 100 95 97 98 98 93 86 84 69 78 82 82 87 92 98 94 99 81 78 59 60 66 64 55 49 48 45 45 47 48 50 53 57 60 59 58 56 52 52 53 52 54 57 61 60
82 62 82 79 72 93 98 99 98 99 100 93 98 100 93 90 83 87 81 79 90 95 98 98 94 65 66 51 49 50 51 58 61 60 56 50 46 46 54 54 54 52 52 52 54 56 60 61 59 60 64 69 73 70
91 77 95 98 85 87 94 98 100 88 98 99 97 94 94 97 93 94 95 90 97 95 97 86 72 55 47 45 45 48 51 51 56 54 54 56 48 49 51 52 55 57 60 60 60 58 57 58 56 55 59 62 61 62
86 82 98 98 99 100 99 96 92 96 100 98 98 98 100 99 98 98 93 96 97 89 86 58 55 54 56 57 53 54 56 58 59 59 58 57 63 63 61 57 60 68 65 64 64 65 61 60 61 62 65 67 69 71
95 93 99 99 98 98 97 100 97 98 96 96 98 100 100 100 96 95 94 93 88 78 54 50 50 51 62 58 61 64 64 65 66 62 59 58 57 56 58 59 59 68 72 65 63 66 68 66 67 66 67 71 75 82
89 98 97 96 97 96 97 97 97 97 97 96 97 96 95 95 96 99 95 86 53 52 56 56 58 70 65 77 76 68 61 58 63 62 61 62 66 62 59 60 58 58 62 61 63 64 65 67 66 66 68 75 81 86
94 97 96 96 96 95 97 97 96 96 96 96 96 95 93 99 100 100 100 88 78 59 56 61 79 70 72 65 57 53 50 55 60 62 52 54 60 61 62 61 59 58 58 61 65 65 65 67 70 71 72 76 83 84
84 96 91 93 98 90 95 99 97 95 96 98 99 97 100 100 100 97 92 84 66 62 62 69 71 68 66 64 62 55 46 45 51 64 56 54 59 67 72 71 69 63 59 60 64 69 70 68 69 72 76 77 79 80
91 94 99 91 94 93 97 91 86 96 100 100 97 100 100 100 100 82 82 86 81 48 33 36 53 62 60 50 45 45 48 52 55 58 56 58 60 60 63 71 74 67 66 68 70 75 86 92 86 78 80 82 84 84
93 95 96 97 99 98 100 100 100 100 93 89 89 100 96 90 78 73 75 34 32 33 36 39 42 48 55 55 58 62 66 68 71 73 78 80 80 78 78 79 80 79 84 92 98 99 99 98 98 97 93 92 91 89
94 100 96 99 100 100 98 91 89 88 74 82 89 86 81 68 61 52 41 42 45 50 61 62 61 60 62 65 67 70 74 82 97 96 94 89 81 75 76 88 97 97 97 97 97 95 98 98 98 98 96 96 97 98
91 94 96 100 100 100 92 87 90 92 87 80 78 65 52 51 46 44 48 57 62 71 67 68 71 77 87 93 93 89 82 82 84 93 95 93 90 92 96 96 97 97 96 97 97 96 92 96 97 97 98 94 91 92
96 98 99 98 95 87 78 89 93 90 93 86 82 72 65 61 53 51 58 66 66 72 78 89 83 86 90 92 96 95 89 80 83 91 96 97 97 97 97 96 97 97 97 98 98 98 97 97 96 97 97 98 96 98
100 100 100 100 97 88 96 94 96 97 96 98 77 98 95 89 92 90 78 71 76 87 84 93 99 94 84 88 94 98 98 98 98 98 97 97 97 98 98 98 98 97 97 97 98 97 97 97 97 96 97 99 98 98
96 95 95 98 99 94 93 84 92 98 99 100 97 99 96 92 86 89 76 82 83 89 90 93 86 79 75 81 88 94 97 95 97 98 97 97 96 96 97 97 96 96 96 98 97 97 96 97 97 95 90 94 98 100